TAM9540 SBKP-SGAS

Flight info

Callsign TAM9540
Flight time 1h 35m
Altitude 34000
Route ASETA UL301 DEVOS DEVOS
Aircraft A321/M-SDE3FGHIRWY/LB1

Departure

Time 2026-04-27 23:21
Airport Viracopos International Airport (SBKP)

Arrival

Time 2026-04-28 00:56
Airport Silvio Pettirossi International Airport (SGAS)
Time Latitude Longitude Altitude Speed Heading
2026-04-27 23:02 -23.00350 -47.14925 2157 ft 0 kts 218°
2026-04-27 23:14 -23.00337 -47.14913 2150 ft 4 kts 235°
2026-04-27 23:14 -23.00329 -47.14888 2149 ft 4 kts 281°
2026-04-27 23:14 -23.00334 -47.14871 2151 ft 0 kts 308°
2026-04-27 23:17 -23.00330 -47.14872 2151 ft 2 kts 335°
2026-04-27 23:17 -23.00309 -47.14881 2150 ft 4 kts 338°
2026-04-27 23:18 -23.00281 -47.14895 2151 ft 5 kts 333°
2026-04-27 23:18 -23.00250 -47.14921 2150 ft 7 kts 314°
2026-04-27 23:18 -23.00219 -47.14963 2153 ft 7 kts 306°
2026-04-27 23:18 -23.00177 -47.14995 2155 ft 8 kts 347°
2026-04-27 23:19 -23.00134 -47.14968 2156 ft 8 kts 36°
2026-04-27 23:19 -23.00092 -47.14929 2153 ft 8 kts 44°
2026-04-27 23:19 -23.00045 -47.14887 2152 ft 9 kts 34°
2026-04-27 23:19 -23.00003 -47.14832 2152 ft 10 kts 50°
2026-04-27 23:20 -22.99947 -47.14783 2154 ft 11 kts 33°
2026-04-27 23:20 -22.99899 -47.14720 2157 ft 11 kts 68°
2026-04-27 23:20 -22.99908 -47.14627 2153 ft 18 kts 116°
2026-04-27 23:20 -23.00123 -47.14314 2153 ft 90 kts 128°
2026-04-27 23:21 -23.00647 -47.13582 2150 ft 153 kts 128°
2026-04-27 23:21 -23.01396 -47.12574 2568 ft 177 kts 130°
2026-04-27 23:21 -23.02168 -47.11539 3438 ft 177 kts 131°
2026-04-27 23:21 -23.02923 -47.10501 4140 ft 170 kts 128°
2026-04-27 23:22 -23.03677 -47.09527 4573 ft 174 kts 147°
2026-04-27 23:22 -23.04870 -47.09278 4729 ft 186 kts 199°
2026-04-27 23:22 -23.06032 -47.09991 4882 ft 202 kts 216°
2026-04-27 23:22 -23.07249 -47.10894 5001 ft 221 kts 217°
2026-04-27 23:23 -23.08581 -47.11890 5103 ft 245 kts 217°
2026-04-27 23:23 -23.09924 -47.13142 5305 ft 262 kts 236°
2026-04-27 23:23 -23.10710 -47.14934 5816 ft 266 kts 259°
2026-04-27 23:23 -23.10915 -47.16936 6472 ft 268 kts 267°
2026-04-27 23:24 -23.11010 -47.18962 7115 ft 269 kts 269°
2026-04-27 23:24 -23.11068 -47.21006 7742 ft 271 kts 270°
2026-04-27 23:24 -23.11113 -47.23063 8356 ft 274 kts 270°
2026-04-27 23:24 -23.11155 -47.25145 8975 ft 277 kts 270°
2026-04-27 23:25 -23.11200 -47.27253 9590 ft 280 kts 270°
2026-04-27 23:25 -23.11248 -47.29378 10173 ft 284 kts 270°
2026-04-27 23:25 -23.11300 -47.31596 10317 ft 304 kts 270°
2026-04-27 23:25 -23.11358 -47.33922 10532 ft 320 kts 269°
2026-04-27 23:26 -23.11418 -47.36398 10767 ft 334 kts 270°
2026-04-27 23:26 -23.11479 -47.38970 11051 ft 346 kts 270°
2026-04-27 23:26 -23.11542 -47.41625 11349 ft 355 kts 269°
2026-04-27 23:26 -23.11607 -47.44320 11772 ft 360 kts 269°
2026-04-27 23:27 -23.11651 -47.46131 12108 ft 362 kts 269°
2026-04-27 23:27 -23.11741 -47.49808 12830 ft 366 kts 269°
2026-04-27 23:27 -23.11784 -47.51638 13188 ft 367 kts 269°
2026-04-27 23:27 -23.11852 -47.54424 13723 ft 370 kts 269°
2026-04-27 23:28 -23.11922 -47.57227 14226 ft 373 kts 269°
2026-04-27 23:28 -23.11992 -47.60050 14718 ft 375 kts 270°
2026-04-27 23:28 -23.12060 -47.62887 15230 ft 376 kts 270°
2026-04-27 23:28 -23.12126 -47.65731 15725 ft 378 kts 270°
2026-04-27 23:29 -23.12189 -47.68600 16218 ft 381 kts 270°
2026-04-27 23:29 -23.12254 -47.71481 16696 ft 383 kts 270°
2026-04-27 23:29 -23.12322 -47.74381 17186 ft 386 kts 270°
2026-04-27 23:29 -23.12393 -47.77294 17680 ft 387 kts 270°
2026-04-27 23:30 -23.12462 -47.80239 18164 ft 390 kts 270°
2026-04-27 23:30 -23.12743 -47.83182 18612 ft 394 kts 260°
2026-04-27 23:30 -23.13540 -47.86038 19033 ft 399 kts 250°
2026-04-27 23:30 -23.14856 -47.88714 19448 ft 405 kts 239°
2026-04-27 23:31 -23.16498 -47.91209 19860 ft 407 kts 238°
2026-04-27 23:31 -23.18155 -47.93713 20251 ft 408 kts 238°
2026-04-27 23:31 -23.19815 -47.96230 20634 ft 410 kts 238°
2026-04-27 23:31 -23.21476 -47.98756 21015 ft 412 kts 238°
2026-04-27 23:32 -23.23148 -48.01301 21396 ft 413 kts 239°
2026-04-27 23:32 -23.24818 -48.03847 21770 ft 415 kts 239°
2026-04-27 23:32 -23.26491 -48.06418 22121 ft 415 kts 241°
2026-04-27 23:32 -23.27887 -48.09143 22440 ft 411 kts 251°
2026-04-27 23:33 -23.28841 -48.12059 22780 ft 408 kts 259°
2026-04-27 23:33 -23.29371 -48.15078 23098 ft 407 kts 265°
2026-04-27 23:33 -23.29808 -48.18101 23423 ft 408 kts 264°
2026-04-27 23:33 -23.30259 -48.21156 23733 ft 410 kts 264°
2026-04-27 23:34 -23.30712 -48.24223 24022 ft 411 kts 265°
2026-04-27 23:34 -23.31166 -48.27303 24315 ft 413 kts 265°
2026-04-27 23:34 -23.31622 -48.30393 24594 ft 414 kts 265°
2026-04-27 23:34 -23.32079 -48.33499 24854 ft 416 kts 265°
2026-04-27 23:35 -23.32537 -48.36612 25126 ft 418 kts 265°
2026-04-27 23:35 -23.32992 -48.39745 25408 ft 419 kts 265°
2026-04-27 23:35 -23.33627 -48.42854 25660 ft 425 kts 257°
2026-04-27 23:35 -23.34498 -48.45943 25917 ft 427 kts 257°
2026-04-27 23:36 -23.35366 -48.49046 26174 ft 429 kts 257°
2026-04-27 23:36 -23.36233 -48.52157 26423 ft 431 kts 257°
2026-04-27 23:36 -23.37103 -48.55286 26661 ft 433 kts 257°
2026-04-27 23:36 -23.37976 -48.58432 26910 ft 434 kts 257°
2026-04-27 23:37 -23.38849 -48.61579 27162 ft 436 kts 257°
2026-04-27 23:37 -23.39729 -48.64750 27401 ft 438 kts 257°
2026-04-27 23:37 -23.40610 -48.67933 27623 ft 441 kts 256°
2026-04-27 23:37 -23.41495 -48.71134 27843 ft 443 kts 256°
2026-04-27 23:38 -23.42386 -48.74359 28081 ft 445 kts 256°
2026-04-27 23:38 -23.43282 -48.77595 28323 ft 447 kts 256°
2026-04-27 23:38 -23.44180 -48.80836 28645 ft 447 kts 256°
2026-04-27 23:38 -23.45072 -48.84063 29000 ft 446 kts 256°
2026-04-27 23:39 -23.45955 -48.87260 29344 ft 445 kts 256°
2026-04-27 23:39 -23.46844 -48.90488 29669 ft 445 kts 256°
2026-04-27 23:39 -23.47730 -48.93707 30009 ft 444 kts 256°
2026-04-27 23:39 -23.48615 -48.96925 30315 ft 443 kts 256°
2026-04-27 23:40 -23.49501 -49.00150 30598 ft 443 kts 256°
2026-04-27 23:40 -23.50380 -49.03357 30889 ft 442 kts 256°
2026-04-27 23:40 -23.51261 -49.06566 31176 ft 441 kts 256°
2026-04-27 23:40 -23.52140 -49.09762 31466 ft 440 kts 257°
2026-04-27 23:41 -23.53019 -49.12962 31750 ft 440 kts 257°
2026-04-27 23:41 -23.53893 -49.16153 32057 ft 439 kts 257°
2026-04-27 23:41 -23.54762 -49.19338 32350 ft 438 kts 257°
2026-04-27 23:41 -23.55630 -49.22517 32634 ft 437 kts 257°
2026-04-27 23:42 -23.56498 -49.25692 32943 ft 436 kts 257°
2026-04-27 23:42 -23.57362 -49.28866 33226 ft 435 kts 257°
2026-04-27 23:42 -23.58223 -49.32025 33536 ft 434 kts 257°
2026-04-27 23:42 -23.59078 -49.35168 33850 ft 432 kts 257°
2026-04-27 23:43 -23.59934 -49.38303 34028 ft 432 kts 258°
2026-04-27 23:43 -23.60792 -49.41452 34067 ft 432 kts 258°
2026-04-27 23:43 -23.62496 -49.47717 34064 ft 430 kts 258°
2026-04-27 23:44 -23.64192 -49.53984 34074 ft 431 kts 258°
2026-04-27 23:44 -23.65864 -49.60216 34068 ft 431 kts 258°
2026-04-27 23:45 -23.67541 -49.66482 34062 ft 431 kts 258°
2026-04-27 23:45 -23.69231 -49.72750 34065 ft 431 kts 258°
2026-04-27 23:46 -23.70924 -49.79070 34070 ft 431 kts 258°
2026-04-27 23:46 -23.72596 -49.85313 34071 ft 431 kts 258°
2026-04-27 23:47 -23.74278 -49.91607 34074 ft 432 kts 258°
2026-04-27 23:47 -23.75955 -49.97902 34078 ft 432 kts 258°
2026-04-27 23:48 -23.77633 -50.04204 34079 ft 432 kts 258°
2026-04-27 23:48 -23.79302 -50.10495 34081 ft 432 kts 258°
2026-04-27 23:49 -23.80979 -50.16799 34083 ft 432 kts 258°
2026-04-27 23:49 -23.82642 -50.23097 34089 ft 432 kts 258°
2026-04-27 23:50 -23.84296 -50.29393 34087 ft 431 kts 258°
2026-04-27 23:50 -23.85949 -50.35680 34089 ft 430 kts 258°
2026-04-27 23:51 -23.87600 -50.41970 34087 ft 430 kts 258°
2026-04-27 23:51 -23.89244 -50.48240 34098 ft 428 kts 258°
2026-04-27 23:52 -23.90877 -50.54449 34098 ft 426 kts 258°
2026-04-27 23:52 -23.92515 -50.60708 34095 ft 426 kts 258°
2026-04-27 23:53 -23.94130 -50.66933 34101 ft 424 kts 258°
2026-04-27 23:53 -23.95736 -50.73130 34103 ft 423 kts 258°
2026-04-27 23:54 -23.97341 -50.79311 34096 ft 422 kts 258°
2026-04-27 23:54 -23.98931 -50.85452 34089 ft 421 kts 258°
2026-04-27 23:55 -24.00521 -50.91613 34095 ft 420 kts 258°
2026-04-27 23:55 -24.02108 -50.97760 34088 ft 419 kts 258°
2026-04-27 23:56 -24.03686 -51.03907 34087 ft 419 kts 258°
2026-04-27 23:56 -24.05256 -51.10037 34080 ft 418 kts 258°
2026-04-27 23:57 -24.06827 -51.16166 34076 ft 418 kts 258°
2026-04-27 23:57 -24.08391 -51.22289 34071 ft 418 kts 258°
2026-04-27 23:58 -24.09962 -51.28437 34047 ft 419 kts 258°
2026-04-27 23:58 -24.11525 -51.34557 34049 ft 420 kts 258°
2026-04-27 23:59 -24.13090 -51.40726 34056 ft 420 kts 258°
2026-04-27 23:59 -24.14646 -51.46887 34057 ft 420 kts 258°
2026-04-28 00:00 -24.16205 -51.53066 34062 ft 420 kts 258°
2026-04-28 00:00 -24.17758 -51.59230 34075 ft 419 kts 258°
2026-04-28 00:01 -24.19308 -51.65371 34071 ft 418 kts 258°
2026-04-28 00:01 -24.20854 -51.71513 34074 ft 418 kts 258°
2026-04-28 00:02 -24.22389 -51.77644 34069 ft 417 kts 259°
2026-04-28 00:02 -24.23924 -51.83775 34076 ft 417 kts 258°
2026-04-28 00:03 -24.25454 -51.89895 34075 ft 415 kts 259°
2026-04-28 00:03 -24.26963 -51.95955 34080 ft 415 kts 259°
2026-04-28 00:04 -24.29240 -52.05099 34082 ft 414 kts 259°
2026-04-28 00:05 -24.30755 -52.11190 34090 ft 413 kts 259°
2026-04-28 00:05 -24.32255 -52.17259 34090 ft 412 kts 259°
2026-04-28 00:06 -24.33748 -52.23311 34087 ft 411 kts 259°
2026-04-28 00:06 -24.35249 -52.29376 34106 ft 411 kts 259°
2026-04-28 00:07 -24.36740 -52.35430 34100 ft 410 kts 259°
2026-04-28 00:07 -24.37969 -52.40451 34100 ft 410 kts 259°
2026-04-28 00:08 -24.39443 -52.46482 34094 ft 409 kts 259°
2026-04-28 00:08 -24.40912 -52.52499 34103 ft 408 kts 259°
2026-04-28 00:09 -24.42376 -52.58530 34096 ft 408 kts 259°
2026-04-28 00:09 -24.43840 -52.64538 34094 ft 407 kts 259°
2026-04-28 00:10 -24.45301 -52.70533 34089 ft 407 kts 259°
2026-04-28 00:10 -24.46717 -52.76552 34086 ft 406 kts 261°
2026-04-28 00:11 -24.48037 -52.82542 34094 ft 405 kts 261°
2026-04-28 00:11 -24.49346 -52.88560 34085 ft 405 kts 261°
2026-04-28 00:12 -24.50676 -52.94573 34078 ft 405 kts 261°
2026-04-28 00:12 -24.52017 -53.00584 34078 ft 405 kts 261°
2026-04-28 00:13 -24.53351 -53.06609 34085 ft 405 kts 261°
2026-04-28 00:13 -24.54676 -53.12625 34082 ft 405 kts 261°
2026-04-28 00:14 -24.56002 -53.18644 34092 ft 405 kts 261°
2026-04-28 00:14 -24.57321 -53.24666 34089 ft 405 kts 261°
2026-04-28 00:15 -24.58628 -53.30642 34092 ft 405 kts 261°
2026-04-28 00:15 -24.59945 -53.36653 34094 ft 405 kts 261°
2026-04-28 00:16 -24.61268 -53.42674 34090 ft 405 kts 261°
2026-04-28 00:16 -24.62583 -53.48698 34085 ft 405 kts 261°
2026-04-28 00:17 -24.63893 -53.54708 34086 ft 404 kts 262°
2026-04-28 00:17 -24.65193 -53.60683 34090 ft 405 kts 262°
2026-04-28 00:18 -24.66504 -53.66710 34091 ft 405 kts 262°
2026-04-28 00:18 -24.67805 -53.72722 34090 ft 404 kts 262°
2026-04-28 00:19 -24.69101 -53.78743 34092 ft 404 kts 262°
2026-04-28 00:19 -24.70396 -53.84765 34093 ft 404 kts 262°
2026-04-28 00:20 -24.71685 -53.90774 34094 ft 404 kts 262°
2026-04-28 00:20 -24.72977 -53.96791 34091 ft 404 kts 262°
2026-04-28 00:21 -24.74269 -54.02795 34102 ft 404 kts 262°
2026-04-28 00:21 -24.75556 -54.08814 34098 ft 403 kts 262°
2026-04-28 00:22 -24.76833 -54.14815 34095 ft 403 kts 262°
2026-04-28 00:22 -24.78110 -54.20817 34094 ft 403 kts 262°
2026-04-28 00:23 -24.79382 -54.26793 34098 ft 403 kts 262°
2026-04-28 00:23 -24.80652 -54.32802 34097 ft 403 kts 262°
2026-04-28 00:24 -24.81917 -54.38803 34095 ft 403 kts 262°
2026-04-28 00:24 -24.83179 -54.44811 34092 ft 403 kts 262°
2026-04-28 00:25 -24.84453 -54.50816 34105 ft 403 kts 262°
2026-04-28 00:25 -24.85727 -54.56823 34104 ft 403 kts 262°
2026-04-28 00:26 -24.86999 -54.62827 34096 ft 402 kts 262°
2026-04-28 00:26 -24.88266 -54.68824 34099 ft 402 kts 262°
2026-04-28 00:27 -24.89528 -54.74829 34097 ft 402 kts 262°
2026-04-28 00:27 -24.90785 -54.80831 34107 ft 402 kts 262°
2026-04-28 00:28 -24.92027 -54.86792 34113 ft 402 kts 262°
2026-04-28 00:28 -24.93273 -54.92780 34107 ft 401 kts 263°
2026-04-28 00:29 -24.94211 -54.98812 34105 ft 398 kts 267°
2026-04-28 00:29 -24.94897 -55.04856 34121 ft 397 kts 268°
2026-04-28 00:30 -24.95592 -55.10887 34116 ft 397 kts 267°
2026-04-28 00:30 -24.96353 -55.16916 34117 ft 396 kts 266°
2026-04-28 00:31 -24.97127 -55.22937 34113 ft 396 kts 266°
2026-04-28 00:31 -24.97891 -55.28942 34122 ft 396 kts 266°
2026-04-28 00:32 -24.98652 -55.34948 34082 ft 396 kts 266°
2026-04-28 00:32 -24.99407 -55.40967 34089 ft 396 kts 266°
2026-04-28 00:33 -25.00148 -55.46986 34100 ft 397 kts 266°
2026-04-28 00:33 -25.00893 -55.52985 34119 ft 397 kts 266°
2026-04-28 00:34 -25.01649 -55.59014 34107 ft 397 kts 266°
2026-04-28 00:34 -25.02398 -55.65040 34113 ft 396 kts 266°
2026-04-28 00:35 -25.03139 -55.71069 34115 ft 396 kts 266°
2026-04-28 00:35 -25.03878 -55.77096 34110 ft 396 kts 266°
2026-04-28 00:36 -25.04618 -55.83101 33774 ft 393 kts 266°
2026-04-28 00:36 -25.04989 -55.86093 33105 ft 394 kts 266°
2026-04-28 00:36 -25.05357 -55.89086 32405 ft 395 kts 266°
2026-04-28 00:36 -25.05721 -55.92071 31707 ft 397 kts 266°
2026-04-28 00:37 -25.06089 -55.95092 30995 ft 399 kts 266°
2026-04-28 00:37 -25.06455 -55.98136 30283 ft 401 kts 266°
2026-04-28 00:37 -25.06823 -56.01206 29456 ft 404 kts 266°
2026-04-28 00:37 -25.07191 -56.04280 28632 ft 405 kts 266°
2026-04-28 00:38 -25.07561 -56.07346 28044 ft 401 kts 266°
2026-04-28 00:38 -25.07928 -56.10383 27457 ft 397 kts 266°
2026-04-28 00:38 -25.08291 -56.13385 26875 ft 394 kts 265°
2026-04-28 00:38 -25.08651 -56.16367 26297 ft 390 kts 265°
2026-04-28 00:39 -25.09008 -56.19322 25730 ft 387 kts 265°
2026-04-28 00:39 -25.09363 -56.22245 25179 ft 383 kts 265°
2026-04-28 00:39 -25.09716 -56.25155 24621 ft 380 kts 265°
2026-04-28 00:39 -25.10064 -56.28031 24072 ft 378 kts 265°
2026-04-28 00:40 -25.10408 -56.30890 23523 ft 375 kts 265°
2026-04-28 00:40 -25.10745 -56.33729 22905 ft 371 kts 265°
2026-04-28 00:40 -25.11078 -56.36545 22274 ft 369 kts 265°
2026-04-28 00:40 -25.11411 -56.39351 21661 ft 367 kts 264°
2026-04-28 00:41 -25.11741 -56.42136 21069 ft 366 kts 264°
2026-04-28 00:41 -25.12068 -56.44918 20498 ft 365 kts 264°
2026-04-28 00:41 -25.12395 -56.47695 19966 ft 364 kts 264°
2026-04-28 00:41 -25.12719 -56.50453 19447 ft 363 kts 264°
2026-04-28 00:42 -25.13040 -56.53206 18932 ft 361 kts 264°
2026-04-28 00:42 -25.13363 -56.55962 18425 ft 361 kts 263°
2026-04-28 00:42 -25.13683 -56.58698 17832 ft 360 kts 263°
2026-04-28 00:42 -25.13890 -56.61450 17234 ft 358 kts 270°
2026-04-28 00:43 -25.13735 -56.64180 16636 ft 357 kts 274°
2026-04-28 00:43 -25.13544 -56.66885 16045 ft 356 kts 274°
2026-04-28 00:43 -25.13353 -56.69609 15458 ft 356 kts 274°
2026-04-28 00:43 -25.13163 -56.72328 14876 ft 355 kts 274°
2026-04-28 00:44 -25.12975 -56.75038 14312 ft 355 kts 274°
2026-04-28 00:44 -25.12787 -56.77752 13730 ft 354 kts 275°
2026-04-28 00:44 -25.12597 -56.80458 13120 ft 353 kts 275°
2026-04-28 00:44 -25.12407 -56.83153 12530 ft 352 kts 275°
2026-04-28 00:45 -25.12217 -56.85836 12177 ft 351 kts 274°
2026-04-28 00:45 -25.12028 -56.88529 12088 ft 352 kts 275°
2026-04-28 00:45 -25.11842 -56.91206 12096 ft 341 kts 275°
2026-04-28 00:45 -25.11671 -56.93680 12094 ft 306 kts 275°
2026-04-28 00:46 -25.11514 -56.95947 12067 ft 294 kts 275°
2026-04-28 00:46 -25.11355 -56.98204 11609 ft 290 kts 275°
2026-04-28 00:46 -25.11205 -57.00342 11335 ft 272 kts 275°
2026-04-28 00:46 -25.11059 -57.02393 10795 ft 265 kts 275°
2026-04-28 00:47 -25.10914 -57.04416 10237 ft 265 kts 275°
2026-04-28 00:47 -25.10770 -57.06434 9986 ft 263 kts 275°
2026-04-28 00:47 -25.10624 -57.08449 9858 ft 263 kts 275°
2026-04-28 00:47 -25.10478 -57.10454 9726 ft 263 kts 275°
2026-04-28 00:48 -25.10331 -57.12466 9603 ft 263 kts 275°
2026-04-28 00:48 -25.10187 -57.14478 9473 ft 263 kts 275°
2026-04-28 00:48 -25.10042 -57.16506 9151 ft 264 kts 275°
2026-04-28 00:48 -25.09899 -57.18493 8966 ft 257 kts 275°
2026-04-28 00:49 -25.09805 -57.19794 8774 ft 255 kts 275°
2026-04-28 00:49 -25.09666 -57.21734 8520 ft 251 kts 275°
2026-04-28 00:49 -25.09488 -57.24225 8261 ft 243 kts 275°
2026-04-28 00:49 -25.09354 -57.26081 7937 ft 242 kts 275°
2026-04-28 00:50 -25.09218 -57.27934 7590 ft 243 kts 275°
2026-04-28 00:50 -25.09080 -57.29798 7240 ft 244 kts 275°
2026-04-28 00:50 -25.08985 -57.31064 7017 ft 244 kts 275°
2026-04-28 00:50 -25.08847 -57.32942 6672 ft 245 kts 275°
2026-04-28 00:51 -25.08710 -57.34793 6319 ft 246 kts 277°
2026-04-28 00:51 -25.08376 -57.36643 5991 ft 245 kts 283°
2026-04-28 00:51 -25.08002 -57.38474 5649 ft 245 kts 282°
2026-04-28 00:51 -25.07625 -57.40353 5042 ft 255 kts 282°
2026-04-28 00:52 -25.07238 -57.42294 4360 ft 261 kts 282°
2026-04-28 00:52 -25.06853 -57.44219 4093 ft 254 kts 281°
2026-04-28 00:52 -25.06791 -57.46099 3620 ft 240 kts 253°
2026-04-28 00:52 -25.07637 -57.47593 3220 ft 223 kts 217°
2026-04-28 00:53 -25.08979 -57.48278 2980 ft 206 kts 191°
2026-04-28 00:53 -25.10318 -57.48601 2712 ft 188 kts 190°
2026-04-28 00:53 -25.11547 -57.48896 2474 ft 173 kts 190°
2026-04-28 00:53 -25.12682 -57.49170 2241 ft 163 kts 189°
2026-04-28 00:54 -25.13768 -57.49433 2032 ft 157 kts 188°
2026-04-28 00:54 -25.14816 -57.49687 1834 ft 152 kts 188°
2026-04-28 00:54 -25.15833 -57.49933 1650 ft 151 kts 188°
2026-04-28 00:54 -25.16863 -57.50183 1436 ft 150 kts 189°
2026-04-28 00:55 -25.17847 -57.50422 1232 ft 142 kts 189°
2026-04-28 00:55 -25.18808 -57.50656 1043 ft 140 kts 190°
2026-04-28 00:55 -25.19752 -57.50885 848 ft 139 kts 191°
2026-04-28 00:55 -25.20692 -57.51113 665 ft 138 kts 192°
2026-04-28 00:56 -25.21625 -57.51331 451 ft 136 kts 192°
2026-04-28 00:56 -25.22547 -57.51559 317 ft 136 kts 192°
2026-04-28 00:56 -25.23349 -57.51752 298 ft 83 kts 193°
2026-04-28 00:56 -25.23656 -57.51831 300 ft 28 kts 194°
2026-04-28 00:57 -25.23843 -57.51878 300 ft 27 kts 192°
2026-04-28 00:57 -25.24024 -57.51923 302 ft 27 kts 192°
2026-04-28 00:57 -25.24207 -57.51966 305 ft 27 kts 192°
2026-04-28 00:57 -25.24266 -57.51960 302 ft 5 kts 122°
2026-04-28 00:58 -25.24267 -57.51910 302 ft 9 kts 92°
2026-04-28 00:58 -25.24283 -57.51827 300 ft 13 kts 103°
2026-04-28 00:58 -25.24304 -57.51724 302 ft 15 kts 101°
2026-04-28 00:58 -25.24319 -57.51613 301 ft 10 kts 100°
2026-04-28 00:59 -25.24306 -57.51555 300 ft 9 kts 37°
2026-04-28 00:59 -25.24293 -57.51524 301 ft 3 kts 103°
2026-04-28 00:59 -25.24298 -57.51500 300 ft 0 kts 104°